15min,AgWx,beryljct,423,13JUL2021:00:00:00,78.4,12.78,77.2,76.7,75.3,76.7,73.4,41,49,36,1.176,50.0,53.2,47.1,7.453,5.0,216,14,7.6,0.00072,0.00102,77.4,76.5,9,0,0,.,9.04,0.00,0.00
15min,AgWx,beryljct,423,13JUL2021:00:15:00,78.7,12.78,82.2,82.1,79.6,82.1,76.7,31,37,27,1.010,46.1,48.8,44.5,8.7,8.4,217,12,14.5,0.00126,0.00170,77.3,76.5,9,0,0,.,9.04,0.00,0.00
15min,AgWx,beryljct,423,13JUL2021:00:30:00,79.9,12.78,81.3,81.6,81.8,82.1,81.5,29,30,27,1.097,46.4,47.2,45.1,7.651,8.7,257,19,13.3,0.00138,0.00186,77.2,76.4,10,0,0,.,9.04,0.00,0.00
15min,AgWx,beryljct,423,13JUL2021:00:45:00,80.6,12.76,82.0,82.4,81.9,82.5,81.4,29,30,27,1.069,46.3,47.3,45.4,9.4,9.9,197,34,23.4,0.00149,0.00197,77.0,76.4,9,0,0,.,9.04,0.00,0.00
15min,AgWx,beryljct,423,13JUL2021:01:00:00,81.3,12.77,81.0,81.1,81.8,82.3,81.1,29,30,28,1.097,46.5,47.2,45.9,9.67,10.5,206,6.7,13.9,0.00153,0.00201,76.9,76.3,9,0,0,.,9.04,0.00,0.00
15min,AgWx,beryljct,423,13JUL2021:01:15:00,81.3,12.77,81.2,80.6,80.7,81.2,80.4,30,31,30,1.066,46.8,47.3,46.3,13.04,9.4,212,8.3,13.0,0.00138,0.00184,76.8,76.3,9,0,0,.,9.04,0.00,0.00
15min,AgWx,beryljct,423,13JUL2021:01:30:00,81.3,12.77,80.8,81.3,81.2,81.7,80.7,29,30,28,1.070,46.2,46.7,45.5,12.41,12.7,228,9.3,16.6,0.00166,0.00212,76.7,76.2,9,0,0,.,9.04,0.00,0.00
15min,AgWx,beryljct,423,13JUL2021:01:45:00,81.4,12.77,81.6,81.7,81.6,81.9,81.2,29,29,28,1.054,46.0,46.4,45.4,14.14,13.4,227,7.9,17.8,0.00173,0.00220,76.5,76.2,9,0,0,.,9.04,0.00,0.00
15min,AgWx,beryljct,423,13JUL2021:02:00:00,81.4,12.75,79.3,80.0,80.8,81.7,79.9,30,31,28,1.064,46.3,46.9,45.7,5.524,10.6,237,9.5,18.3,0.00151,0.00196,76.4,76.1,9,0,0,.,9.03,0.00,0.00
15min,AgWx,beryljct,423,13JUL2021:02:15:00,80.7,12.75,77.9,78.0,78.8,80.1,77.9,33,34,31,1.086,47.0,47.4,46.5,1.995,4.5,254,8.1,7.8,0.00082,0.00120,76.4,76.1,9,0,0,.,9.03,0.00,0.00
15min,AgWx,beryljct,423,13JUL2021:02:30:00,79.4,12.76,76.5,75.3,75.8,78.1,73.8,38,43,33,1.179,48.6,50.6,46.2,3.946,3.6,147,48,7.6,0.00061,0.00090,76.2,76.0,9,0,0,.,9.03,0.00,0.00
15min,AgWx,beryljct,423,13JUL2021:02:45:00,78.0,12.75,74.9,75.1,75.0,77.0,73.5,40,44,34,1.131,48.8,51.1,46.7,4.691,4.4,167,19,6.0,0.00068,0.00098,76.1,76.0,9,0,0,.,9.04,0.00,0.00
15min,AgWx,beryljct,423,13JUL2021:03:00:00,77.0,12.76,74.9,74.7,75.2,75.9,74.4,38,39,36,1.110,47.7,48.3,46.9,4.472,4.7,191,16,6.4,0.00074,0.00105,76.0,75.9,9,0,0,.,9.04,0.00,0.00
15min,AgWx,beryljct,423,13JUL2021:03:15:00,76.4,12.75,75.6,75.4,75.0,76.0,74.0,37,40,35,1.071,47.3,48.6,46.3,3.639,4.0,186,15,4.9,0.00065,0.00096,75.9,75.9,9,0,0,.,9.04,0.00,0.00
15min,AgWx,beryljct,423,13JUL2021:03:30:00,76.2,12.75,77.1,76.7,76.1,77.2,75.2,35,37,34,1.085,46.8,47.5,46.1,4.45,5.6,190,9.2,9.0,0.00087,0.00122,75.8,75.8,9,0,0,.,9.04,0.00,0.00
15min,AgWx,beryljct,423,13JUL2021:03:45:00,76.0,12.75,76.2,75.7,76.4,77.0,75.7,36,37,34,1.119,47.1,47.7,46.3,4.669,4.6,217,13,6.1,0.00076,0.00110,75.7,75.8,9,0,0,.,9.04,0.00,0.00
15min,AgWx,beryljct,423,13JUL2021:04:00:00,75.7,12.73,72.9,72.8,75.7,76.6,72.8,37,43,35,1.187,47.8,49.5,47.0,2.587,3.5,193,41,6.5,0.00060,0.00090,75.5,75.7,9,0,0,.,9.04,0.00,0.00
15min,AgWx,beryljct,423,13JUL2021:04:15:00,74.7,12.75,74.9,74.0,71.5,74.0,69.7,45,50,39,1.120,49.2,50.6,47.6,3.595,2.2,102,28,4.3,0.00035,0.00054,75.3,75.6,9,0,0,.,9.04,0.00,0.00
15min,AgWx,beryljct,423,13JUL2021:04:30:00,73.9,12.73,69.6,69.7,73.0,75.4,69.7,42,49,36,1.216,48.4,50.2,46.6,2.762,3.6,150,8.3,5.9,0.00055,0.00082,75.2,75.6,9,0,0,.,9.04,0.00,0.00
15min,AgWx,beryljct,423,13JUL2021:04:45:00,72.5,12.74,65.3,68.3,69.6,71.7,67.6,47,52,41,1.222,48.3,49.9,46.8,0.57,1.8,134,14,3.1,0.00033,0.00058,75.1,75.5,9,0,0,.,9.05,0.00,0.00
15min,AgWx,beryljct,423,13JUL2021:05:00:00,70.8,12.74,67.9,67.8,65.5,68.0,63.3,56,61,49,1.130,49.3,51.3,47.1,4.582,4.1,316,32,5.8,0.00053,0.00092,74.9,75.5,9,0,0,.,9.05,0.00,0.00
15min,AgWx,beryljct,423,13JUL2021:05:15:00,69.7,12.73,69.1,69.1,68.1,69.1,67.0,49,53,47,1.133,48.5,49.3,47.7,3.223,5.0,333,2.9,6.8,0.00076,0.00133,74.7,75.4,9,0,0,.,9.05,0.00,0.00
15min,AgWx,beryljct,423,13JUL2021:05:30:00,69.2,12.72,67.4,68.2,69.4,70.2,68.2,47,51,44,1.203,48.1,49.5,47.1,0.482,2.3,286,15,5.1,0.00043,0.00074,74.5,75.4,10,3,0,.,9.05,0.00,0.00
15min,AgWx,beryljct,423,13JUL2021:05:45:00,69.0,12.75,68.0,67.9,68.7,69.6,67.7,48,51,45,1.176,48.4,49.4,47.4,3.113,1.4,333,25,3.4,0.00033,0.00051,74.3,75.3,9,13,0,.,9.05,0.00,0.00
15min,AgWx,beryljct,423,13JUL2021:06:00:00,69.0,12.75,69.6,69.2,68.8,70.3,67.6,49,54,45,1.172,49.0,50.8,47.5,0.417,2.9,276,2.4,5.5,0.00072,0.00109,74.1,75.2,9,37,0,.,9.05,0.00,0.00
15min,AgWx,beryljct,423,13JUL2021:06:15:00,69.2,12.77,66.5,66.9,69.5,72.1,66.9,49,59,41,1.270,49.4,52.3,46.9,5.371,3.0,168,83,6.1,0.00074,0.00112,73.9,75.2,9,37,0,.,9.05,0.00,0.00
15min,AgWx,beryljct,423,13JUL2021:06:30:00,69.1,12.79,69.0,68.5,66.7,68.5,66.0,57,60,51,1.223,50.8,51.7,49.7,4.538,4.6,134,9.4,6.0,0.00096,0.00143,73.7,75.1,9,60,0,.,9.05,0.00,0.00
15min,AgWx,beryljct,423,13JUL2021:06:45:00,69.4,12.81,66.7,67.0,67.9,71.0,66.2,57,64,45,1.362,51.7,54.3,48.5,1.184,3.3,153,6.7,5.8,0.00127,0.00166,73.5,75.0,9,144,0,.,9.05,0.00,0.00
15min,AgWx,beryljct,423,13JUL2021:07:00:00,71.3,12.85,73.1,72.7,70.2,72.7,67.0,52,60,44,1.238,51.6,53.2,49.5,3.244,2.6,158,5.2,5.4,0.00179,0.00218,73.4,75.0,9,246,0,.,9.04,0.00,0.00
15min,AgWx,beryljct,423,13JUL2021:07:15:00,73.9,12.81,75.3,75.3,74.3,75.7,72.8,42,45,38,1.232,49.5,50.2,48.5,4.319,3.2,167,3.9,4.3,0.00206,0.00263,73.3,74.9,9,240,0,.,9.04,0.00,0.00
15min,AgWx,beryljct,423,13JUL2021:07:30:00,75.6,12.86,77.0,76.3,75.4,76.4,74.4,42,46,39,1.227,50.4,52.4,48.6,2.828,4.2,156,4.7,6.8,0.00225,0.00296,73.2,74.8,9,238,0,.,9.04,0.00,0.00
15min,AgWx,beryljct,423,13JUL2021:07:45:00,76.7,12.9,80.5,80.0,76.3,80.0,74.4,41,48,32,1.138,50.7,53.4,47.9,13.35,6.3,156,15,17.4,0.00219,0.00314,73.1,74.8,9,153,0,.,9.04,0.00,0.00
15min,AgWx,beryljct,423,13JUL2021:08:00:00,78.7,13,81.5,81.7,80.9,81.8,80.1,32,33,31,1.183,48.6,49.4,48.1,13.26,13.6,187,8.8,18.1,0.00444,0.00659,73.1,74.7,9,322,0,.,9.03,0.00,0.00
15min,AgWx,beryljct,423,13JUL2021:08:15:00,80.5,13.03,80.4,80.8,81.3,81.8,80.8,32,34,32,1.190,49.0,50.0,48.3,9.67,11.2,199,9.7,15.4,0.00387,0.00573,73.1,74.6,9,258,0,.,9.03,0.00,0.00
15min,AgWx,beryljct,423,13JUL2021:08:30:00,82.4,13.3,83.5,83.5,82.5,83.5,80.8,32,34,30,1.231,49.7,50.8,48.5,6.423,10.4,209,12,18.1,0.00510,0.00696,73.2,74.5,9,503,0,.,9.03,0.00,0.00
15min,AgWx,beryljct,423,13JUL2021:08:45:00,84.6,13.42,85.2,84.6,84.1,84.6,83.5,30,32,29,1.187,49.2,50.4,48.0,7.76,11.6,205,11,17.1,0.00563,0.00774,73.3,74.4,9,538,0,.,9.03,0.00,0.00
15min,AgWx,beryljct,423,13JUL2021:09:00:00,86.2,13.52,84.2,84.8,84.6,85.5,83.8,30,31,29,1.176,49.6,51.3,48.4,15.1,11.4,205,13,17.8,0.00586,0.00798,73.4,74.4,9,574,0,.,9.03,0.00,0.00
15min,AgWx,beryljct,423,13JUL2021:09:15:00,87.1,13.83,84.7,85.1,84.7,85.4,84.3,30,31,29,1.210,49.9,50.9,48.5,9.08,11.8,205,10,15.6,0.00620,0.00840,73.5,74.3,9,618,0,.,9.02,0.00,0.00
15min,AgWx,beryljct,423,13JUL2021:09:30:00,88.1,13.81,86.1,86.4,85.4,86.4,84.9,30,32,29,1.267,50.5,52.2,49.3,11.2,12.7,202,13,18.5,0.00657,0.00890,73.7,74.3,9,654,0,.,9.02,0.00,0.00
15min,AgWx,beryljct,423,13JUL2021:09:45:00,88.8,13.81,85.2,86.1,85.4,86.4,84.8,31,33,29,1.257,51.4,52.8,50.4,16.77,12.5,214,14,17.4,0.00683,0.00914,73.9,74.2,9,705,0,.,9.02,0.00,0.00
15min,AgWx,beryljct,423,13JUL2021:10:00:00,89.3,13.85,85.4,85.3,85.6,86.5,84.7,30,32,28,1.288,51.0,53.2,49.3,12.39,14.0,210,13,19.9,0.00738,0.00993,74.2,74.1,9,766,0,.,9.02,0.00,0.00
15min,AgWx,beryljct,423,13JUL2021:10:15:00,90.4,13.74,86.2,86.7,86.6,87.6,85.3,30,33,29,1.389,51.9,54.0,50.4,11.62,12.5,207,10,19.4,0.00820,0.01064,74.6,74.1,9,924,0,.,9.02,0.00,0.00
15min,AgWx,beryljct,423,13JUL2021:10:30:00,91.0,13.79,85.1,86.1,86.4,87.1,85.7,30,32,29,1.230,51.4,53.5,50.1,16.64,15.8,211,10,20.2,0.00825,0.01108,74.9,74.1,9,870,0,.,9.03,0.00,0.00
15min,AgWx,beryljct,423,13JUL2021:10:45:00,91.2,13.77,85.9,86.9,86.5,87.7,85.4,30,32,29,1.340,51.8,54.1,49.8,15.78,14.3,206,12,21.8,0.00839,0.01105,75.3,74.0,9,915,0,.,9.02,0.00,0.00
15min,AgWx,beryljct,423,13JUL2021:11:00:00,91.1,13.76,85.2,86.3,86.4,87.3,85.5,32,35,30,1.337,53.1,55.4,51.1,13.26,12.1,211,14,18.0,0.00686,0.00913,75.7,74.0,9,695,0,.,9.03,0.00,0.00
15min,AgWx,beryljct,423,13JUL2021:11:15:00,90.6,13.84,86.6,86.1,85.7,86.3,85.1,32,35,31,1.392,52.8,54.9,51.2,12.65,12.7,212,22,17.8,0.00678,0.00907,76.2,74.0,9,687,0,.,9.02,0.00,0.00
15min,AgWx,beryljct,423,13JUL2021:11:30:00,90.7,13.85,88.2,87.8,87.0,88.5,85.4,31,34,29,1.405,53.0,55.3,50.7,10.46,10.5,202,19,16.6,0.00784,0.00998,76.6,74.0,9,884,0,.,9.02,0.00,0.00
15min,AgWx,beryljct,423,13JUL2021:11:45:00,91.8,13.29,87.1,88.3,88.2,88.8,87.6,31,34,28,1.413,53.3,55.6,51.4,11.11,11.6,197,17,16.3,0.00854,0.01091,77.1,74.1,9,963,0,.,9.02,0.00,0.00
15min,AgWx,beryljct,423,13JUL2021:12:00:00,92.5,13.32,88.7,88.8,88.2,88.9,87.3,30,32,26,1.291,52.5,54.6,49.5,5.59,8.2,215,26,13.3,0.00744,0.00931,77.5,74.1,9,843,0,.,9.02,0.00,0.00
15min,AgWx,beryljct,423,13JUL2021:12:15:00,93.1,13.29,89.0,90.1,89.0,90.7,87.9,30,33,27,1.521,53.5,56.5,50.8,8.62,9.4,216,34,18.5,0.00814,0.01022,77.7,74.2,9,927,0,.,9.02,0.00,0.00
15min,AgWx,beryljct,423,13JUL2021:12:30:00,94.0,13.28,89.5,90.6,90.0,90.6,89.2,29,31,27,1.483,53.4,55.7,51.8,9.03,7.4,195,19,12.3,0.00800,0.00981,78.1,74.2,9,931,0,.,9.02,0.00,0.00
15min,AgWx,beryljct,423,13JUL2021:12:45:00,94.7,13.26,91.2,90.5,89.9,91.2,89.0,29,33,27,1.423,53.8,57.1,51.7,9.27,8.5,197,20,18.5,0.00814,0.01012,78.9,74.3,9,936,0,.,9.02,0.00,0.00
15min,AgWx,beryljct,423,13JUL2021:13:00:00,95.1,13.3,91.8,89.8,90.2,91.1,89.7,28,31,26,1.319,53.0,55.5,50.6,4.669,9.8,198,15,17.9,0.00835,0.01058,79.5,74.4,9,937,0,.,9.02,0.00,0.00
15min,AgWx,beryljct,423,13JUL2021:13:15:00,95.6,13.25,89.4,91.3,90.7,91.8,89.4,27,29,25,1.448,52.1,54.5,50.3,13.72,8.3,177,25,16.2,0.00817,0.01017,80.0,74.5,9,936,0,.,9.02,0.00,0.00
15min,AgWx,beryljct,423,13JUL2021:13:30:00,95.6,13.34,90.1,90.7,90.4,91.2,89.6,28,31,26,1.292,52.6,55.6,51.0,9.19,10.7,212,15,17.7,0.00838,0.01075,80.5,74.6,9,923,0,.,9.02,0.00,0.00
15min,AgWx,beryljct,423,13JUL2021:13:45:00,96.0,13.21,93.1,91.8,91.2,92.8,89.8,26,29,23,1.326,51.8,54.0,49.9,10.15,4.8,209,34,12.6,0.00750,0.00891,81.2,74.7,9,912,0,.,9.02,0.00,0.00
15min,AgWx,beryljct,423,13JUL2021:14:00:00,96.3,13.19,91.8,92.3,92.0,92.9,91.0,26,29,25,1.318,52.5,54.7,50.5,12.54,10.9,191,16,15.4,0.00837,0.01083,81.8,74.8,9,895,0,.,9.02,0.00,0.00
15min,AgWx,beryljct,423,13JUL2021:14:15:00,96.3,13.18,90.9,90.9,91.7,92.6,90.8,26,29,25,1.284,52.1,54.7,50.2,8.53,11.5,194,26,18.4,0.00832,0.01088,82.3,75.0,9,879,0,.,9.02,0.00,0.00
15min,AgWx,beryljct,423,13JUL2021:14:30:00,96.2,13.2,91.6,91.6,91.7,92.7,90.4,26,29,24,1.293,51.8,55.0,49.8,7.497,9.7,208,34,17.4,0.00791,0.01017,82.7,75.2,9,857,0,.,9.02,0.00,0.00
15min,AgWx,beryljct,423,13JUL2021:14:45:00,96.3,13.22,91.0,91.4,91.6,92.3,91.0,25,27,23,1.172,50.8,53.1,48.4,1.951,9.2,203,20,14.8,0.00767,0.00985,83.2,75.3,9,834,0,.,9.02,0.00,0.00
15min,AgWx,beryljct,423,13JUL2021:15:00:00,96.8,13.25,93.1,91.3,91.7,92.6,91.1,25,28,23,1.154,50.8,54.3,47.9,2.148,7.1,207,27,16.3,0.00713,0.00894,83.7,75.5,9,808,0,.,9.02,0.00,0.00
15min,AgWx,beryljct,423,13JUL2021:15:15:00,97.6,13.16,90.9,91.8,92.0,92.7,91.5,24,27,22,1.279,49.8,53.2,48.0,13.26,8.7,189,21,15.9,0.00720,0.00928,84.0,75.7,9,778,0,.,9.02,0.00,0.00
15min,AgWx,beryljct,423,13JUL2021:15:30:00,97.7,13.18,92.3,92.4,91.9,93.0,91.0,24,26,22,1.206,50.0,52.4,48.3,6.84,9.7,205,26,15.6,0.00712,0.00938,84.3,75.9,9,741,0,.,9.02,0.00,0.00
15min,AgWx,beryljct,423,13JUL2021:15:45:00,97.8,13.16,92.6,92.9,92.1,92.9,91.5,24,26,23,1.212,50.3,52.8,48.6,9.49,9.1,207,16,15.4,0.00660,0.00872,84.7,76.0,9,684,0,.,9.02,0.00,0.00
15min,AgWx,beryljct,423,13JUL2021:16:00:00,97.9,13.16,91.7,91.6,92.1,93.0,91.3,24,27,22,1.259,50.5,52.9,48.4,12.69,10.3,210,28,15.4,0.00675,0.00907,85.0,76.2,9,676,0,.,9.02,0.00,0.00
15min,AgWx,beryljct,423,13JUL2021:16:15:00,97.7,13.2,90.9,91.8,91.7,92.3,91.2,24,26,23,1.172,50.2,52.3,48.4,9.21,9.4,212,17,14.4,0.00630,0.00845,85.3,76.4,9,640,0,.,9.02,0.00,0.00
15min,AgWx,beryljct,423,13JUL2021:16:30:00,97.7,13.21,91.6,92.3,92.2,92.9,91.4,24,26,22,1.269,50.2,52.9,48.1,11.07,9.7,205,21,21.5,0.00612,0.00831,85.5,76.6,9,603,0,.,9.02,0.00,0.00
15min,AgWx,beryljct,423,13JUL2021:16:45:00,97.7,13.2,91.5,91.9,92.4,92.9,91.6,24,27,23,1.211,50.6,53.7,48.8,8.02,10.2,210,12,13.8,0.00608,0.00836,85.7,76.8,9,582,0,.,9.02,0.00,0.00
15min,AgWx,beryljct,423,13JUL2021:17:00:00,97.1,13.21,92.0,91.6,91.3,92.8,90.5,25,28,24,1.198,50.8,53.7,48.8,8.37,9.3,222,21,16.1,0.00462,0.00662,85.8,77.0,9,414,0,.,9.02,0.00,0.00
15min,AgWx,beryljct,423,13JUL2021:17:15:00,95.7,13.2,89.3,89.3,90.4,91.8,89.1,24,27,22,1.217,49.1,51.0,47.1,12.69,10.2,210,16,16.6,0.00366,0.00574,86.0,77.2,9,226,0,.,9.02,0.00,0.00
15min,AgWx,beryljct,423,13JUL2021:17:30:00,94.0,13.15,89.9,89.7,89.7,90.2,89.1,25,26,23,1.168,48.9,50.3,47.4,9.38,10.9,199,13,17.4,0.00339,0.00554,86.1,77.4,9,141,0,.,9.02,0.00,0.00
15min,AgWx,beryljct,423,13JUL2021:17:45:00,92.7,13.16,88.8,89.5,89.4,89.9,88.8,25,28,24,1.205,49.5,51.0,48.2,5.217,8.6,207,14,12.2,0.00269,0.00443,86.1,77.6,9,141,0,.,9.03,0.00,0.00
15min,AgWx,beryljct,423,13JUL2021:18:00:00,91.8,13.11,87.6,88.2,88.9,89.4,88.2,27,29,25,1.333,50.7,52.4,49.0,5.108,8.7,222,15,12.8,0.00241,0.00410,86.0,77.8,9,103,0,.,9.02,0.00,0.00
15min,AgWx,beryljct,423,13JUL2021:18:15:00,89.8,13,79.1,80.0,84.0,88.2,80.0,30,34,26,1.181,49.1,53.1,47.5,24.05,17.2,352,32,26.2,0.00363,0.00626,86.1,78.0,9,20,0,.,9.03,0.00,0.00
15min,AgWx,beryljct,423,13JUL2021:18:30:00,86.7,12.97,77.5,78.0,78.8,80.0,77.9,35,37,34,1.222,49.2,49.9,48.7,13.15,18.4,353,17,27.8,0.00324,0.00562,85.9,78.1,9,11,0,.,9.04,0.00,0.00
15min,AgWx,beryljct,423,13JUL2021:18:45:00,83.9,12.96,75.4,76.0,77.0,78.0,76.0,40,43,36,1.329,50.6,52.2,49.1,17.19,16.9,353,11,26.5,0.00255,0.00457,85.7,78.3,9,13,23,.,9.04,0.00,0.00
15min,AgWx,beryljct,423,13JUL2021:19:00:00,80.2,12.94,71.6,71.9,73.5,75.9,71.7,52,59,41,1.544,54.6,56.6,50.6,5.963,10.7,11,23,24.1,0.00071,0.00093,85.4,78.5,9,5,100,.,9.04,0.00,0.00
15min,AgWx,beryljct,423,13JUL2021:19:15:00,78.3,12.95,71.4,71.4,71.8,72.3,71.4,58,61,56,1.566,56.2,57.1,55.6,6.708,5.7,356,39,9.8,0.00029,0.00043,85.1,78.6,9,3,100,.,9.05,0.00,0.00
15min,AgWx,beryljct,423,13JUL2021:19:30:00,77.3,12.94,71.7,71.4,71.6,72.1,71.1,59,61,57,1.547,56.8,57.4,56.2,4.867,8.6,314,19,13.5,0.00045,0.00061,84.7,78.7,9,2,82,.,9.04,0.00,0.00
15min,AgWx,beryljct,423,13JUL2021:19:45:00,75.8,12.92,71.2,71.2,71.3,71.7,71.0,60,63,58,1.541,56.8,57.9,55.7,8.29,6.3,354,17,9.1,0.00029,0.00043,84.3,78.8,9,1,69,.,9.05,0.01,0.00
15min,AgWx,beryljct,423,13JUL2021:20:00:00,73.8,12.92,70.3,70.7,71.3,71.7,70.7,56,60,53,1.505,55.0,56.7,53.9,8.44,8.5,0.2,9.7,11.5,0.00048,0.00065,83.9,78.9,9,0,100,.,9.06,0.01,0.00
15min,AgWx,beryljct,423,13JUL2021:20:15:00,72.4,12.9,66.7,67.7,69.2,70.6,67.7,66,76,59,1.761,57.4,60.2,55.5,3.924,6.5,359,8.6,9.5,0.00023,0.00034,83.6,79.0,9,0,100,.,9.08,0.02,0.01
15min,AgWx,beryljct,423,13JUL2021:20:30:00,71.4,12.9,66.4,66.6,67.1,67.6,66.6,75,78,73,1.696,59.1,60.2,58.5,6.335,5.2,17,17,7.5,0.00005,0.00010,83.2,79.1,9,0,100,.,9.09,0.01,0.00
15min,AgWx,beryljct,423,13JUL2021:20:45:00,70.4,12.91,66.0,66.2,66.1,66.6,65.7,79,82,77,1.750,59.6,60.1,59.0,4.757,5.9,51,7.4,9.2,0.00004,0.00008,82.8,79.1,9,0,100,.,9.10,0.02,0.01
15min,AgWx,beryljct,423,13JUL2021:21:00:00,69.7,12.91,66.0,66.2,65.9,66.3,65.7,83,84,80,1.794,60.6,60.9,59.8,3.793,2.5,68,7.4,5.3,-0.00014,-0.00018,82.3,79.1,9,0,100,.,9.11,0.01,0.01
15min,AgWx,beryljct,423,13JUL2021:21:15:00,69.1,12.9,65.0,65.0,65.7,66.2,65.0,80,82,79,1.738,59.5,60.5,59.0,7.585,7.0,101,18,9.9,0.00006,0.00011,82.0,79.1,9,0,100,.,9.14,0.02,0.02
15min,AgWx,beryljct,423,13JUL2021:21:30:00,68.3,12.9,64.7,64.6,64.8,65.2,64.5,84,86,81,1.695,59.8,60.4,58.9,18.61,11.3,134,8.2,21.8,0.00011,0.00016,81.5,79.1,9,0,100,.,9.17,0.04,0.03
15min,AgWx,beryljct,423,13JUL2021:21:45:00,67.5,12.89,64.9,64.9,64.8,65.1,64.6,80,82,76,1.640,58.4,59.0,57.4,14.62,20.2,144,13,25.3,0.00029,0.00035,81.3,79.1,9,0,100,.,9.17,0.00,0.01
15min,AgWx,beryljct,423,13JUL2021:22:00:00,67.1,12.88,64.0,64.4,64.9,65.2,64.4,78,81,76,1.679,57.8,58.6,57.4,7.103,13.6,165,15,20.3,0.00025,0.00031,80.9,79.1,9,0,100,.,9.16,0.00,0.00
15min,AgWx,beryljct,423,13JUL2021:22:15:00,67.1,12.88,64.1,64.2,64.3,64.5,64.1,81,83,80,1.686,58.5,58.8,58.2,4.472,7.7,174,13,12.7,0.00007,0.00011,80.6,79.1,9,0,0,.,9.17,0.00,0.00
15min,AgWx,beryljct,423,13JUL2021:22:30:00,67.1,12.86,64.7,64.2,64.1,64.3,63.6,82,85,80,1.647,58.5,59.1,58.0,9.97,5.4,242,70,15.2,-0.00001,0.00001,80.2,79.1,9,0,0,.,9.17,0.00,0.00
15min,AgWx,beryljct,423,13JUL2021:22:45:00,67.2,12.85,64.0,63.9,64.2,64.7,63.7,80,83,77,1.649,58.0,58.5,57.3,4.691,6.8,315,12,9.7,0.00006,0.00010,79.8,79.0,9,0,0,.,9.17,0.00,0.00
15min,AgWx,beryljct,423,13JUL2021:23:00:00,67.1,12.87,64.3,63.9,64.1,64.6,63.8,81,83,78,1.641,58.1,58.7,57.4,6.467,7.6,326,11,10.7,0.00007,0.00011,79.5,79.0,9,0,0,.,9.16,0.00,0.00
15min,AgWx,beryljct,423,13JUL2021:23:15:00,67.0,12.86,64.0,63.9,63.9,64.2,63.7,84,85,81,1.716,58.9,59.3,58.0,6.16,6.9,318,7.2,9.9,0.00002,0.00005,79.1,78.9,9,0,0,.,9.16,0.00,0.00
15min,AgWx,beryljct,423,13JUL2021:23:30:00,66.7,12.86,63.0,63.2,63.4,63.9,63.1,88,90,85,1.773,59.9,60.2,59.2,4.779,5.2,299,7.7,7.1,-0.00007,-0.00007,78.8,78.8,9,0,59,.,9.16,0.00,0.00
15min,AgWx,bigpiney,439,13JUL2021:00:00:00,59.4,12.65,55.5,55.1,55.7,56.6,54.6,55,59,52,0.827,39.6,40.5,39.0,6.73,5.6,231,10,7.1,0.00026,0.00036,57.0,54.2,48,0,0,0.0,2.23,0.00,0.00
15min,AgWx,bigpiney,439,13JUL2021:00:15:00,58.9,12.65,54.0,53.7,53.8,55.4,51.3,59,67,55,0.847,39.7,40.8,39.2,7.738,5.2,192,64,9.2,0.00020,0.00028,57.0,54.3,48,0,0,0.0,2.23,0.00,0.00
15min,AgWx,bigpiney,439,13JUL2021:00:30:00,58.2,12.65,55.1,53.6,52.7,53.9,51.3,64,70,59,0.831,40.9,41.9,39.8,1.381,3.6,105,13,8.9,0.00008,0.00014,56.9,54.3,48,0,0,0.0,2.23,0.00,0.00
15min,AgWx,bigpiney,439,13JUL2021:00:45:00,57.4,12.63,49.9,50.7,55.1,57.7,50.7,54,67,47,0.848,38.7,40.3,37.4,5.239,3.4,196,28,5.6,0.00013,0.00020,56.8,54.3,48,0,0,0.0,2.23,0.00,0.00
15min,AgWx,bigpiney,439,13JUL2021:01:00:00,56.6,12.62,48.3,48.3,48.9,50.6,48.0,72,74,68,0.836,40.2,40.4,39.8,5.48,5.2,236,9.5,6.0,0.00009,0.00013,56.8,54.3,48,0,0,0.0,2.23,0.00,0.00
15min,AgWx,bigpiney,439,13JUL2021:01:15:00,55.5,12.62,50.2,48.8,48.3,48.8,48.1,73,74,72,0.843,40.1,40.4,39.7,3.727,4.3,241,7.1,6.1,0.00005,0.00008,56.7,54.3,48,0,0,0.0,2.23,0.00,0.00
15min,AgWx,bigpiney,439,13JUL2021:01:30:00,54.5,12.61,46.1,46.5,47.9,50.4,46.3,73,77,66,0.821,39.7,40.1,39.4,3.354,4.1,217,11,5.5,0.00004,0.00007,56.7,54.3,48,0,0,0.0,2.23,0.00,0.00
15min,AgWx,bigpiney,439,13JUL2021:01:45:00,53.5,12.6,45.0,44.7,45.4,46.4,44.4,80,82,76,0.813,39.6,39.9,39.2,4.932,4.2,212,7.3,5.5,0.00000,0.00002,56.6,54.3,48,0,0,0.0,2.23,0.00,0.00
15min,AgWx,bigpiney,439,13JUL2021:02:00:00,52.6,12.58,46.9,47.5,46.3,48.9,44.7,75,81,64,0.779,38.6,39.3,37.4,4.823,3.1,246,34,5.9,-0.00001,0.00001,56.5,54.3,48,0,0,0.0,2.23,0.00,0.00
15min,AgWx,bigpiney,439,13JUL2021:02:15:00,51.8,12.58,45.5,45.4,47.1,50.3,45.0,70,77,58,0.774,37.7,38.4,36.2,3.924,2.4,226,47,4.9,-0.00002,-0.00001,56.5,54.3,48,0,0,0.0,2.23,0.00,0.00
15min,AgWx,bigpiney,439,13JUL2021:02:30:00,51.3,12.57,44.8,44.6,44.8,45.5,44.2,78,80,75,0.788,38.2,38.7,37.8,4.077,4.1,209,9.7,5.1,0.00001,0.00003,56.4,54.3,48,0,0,0.0,2.23,0.00,0.00
15min,AgWx,bigpiney,439,13JUL2021:02:45:00,50.7,12.55,47.1,46.0,44.9,46.0,44.3,78,80,73,0.768,38.3,38.6,37.7,1.732,2.8,254,50,4.8,-0.00003,-0.00003,56.3,54.2,48,0,0,0.0,2.23,0.00,0.00
15min,AgWx,bigpiney,439,13JUL2021:03:00:00,50.2,12.54,43.6,43.5,45.4,47.4,43.2,74,82,67,0.773,37.5,38.0,37.0,3.573,3.3,211,18,4.3,0.00000,0.00002,56.3,54.2,48,0,0,0.0,2.23,0.00,0.00
15min,AgWx,bigpiney,439,13JUL2021:03:15:00,49.7,12.54,43.3,43.3,43.5,44.6,42.9,80,82,76,0.771,37.8,38.1,37.4,5.634,4.3,214,8.0,5.8,0.00000,0.00002,56.2,54.2,48,0,0,0.0,2.23,0.00,0.00
15min,AgWx,bigpiney,439,13JUL2021:03:30:00,49.2,12.51,45.8,45.1,44.1,45.1,43.2,77,81,73,0.743,37.5,38.0,36.9,4.494,5.5,219,6.2,7.2,0.00005,0.00007,56.1,54.2,48,0,0,0.0,2.23,0.00,0.00
15min,AgWx,bigpiney,439,13JUL2021:03:45:00,49.0,12.51,46.8,46.3,45.3,46.3,44.6,72,75,68,0.725,36.7,37.1,36.3,3.814,4.9,218,5.7,6.3,0.00007,0.00011,56.1,54.2,48,0,0,0.0,2.23,0.00,0.00
15min,AgWx,bigpiney,439,13JUL2021:04:00:00,49.0,12.5,48.2,47.9,46.9,47.9,45.4,68,72,66,0.748,36.9,37.2,36.3,5.722,5.1,219,11,6.1,0.00010,0.00015,56.0,54.2,48,0,0,0.0,2.23,0.00,0.00
15min,AgWx,bigpiney,439,13JUL2021:04:15:00,49.2,12.49,49.8,49.5,48.5,49.5,47.8,65,67,62,0.751,37.2,37.4,37.0,6.27,6.3,227,6.9,8.3,0.00017,0.00023,55.9,54.2,48,0,0,0.0,2.23,0.00,0.00
15min,AgWx,bigpiney,439,13JUL2021:04:30:00,49.7,12.48,48.7,48.2,48.6,49.7,47.0,65,70,61,0.755,37.4,37.9,36.9,5.919,5.8,223,10,8.0,0.00015,0.00021,55.8,54.1,48,0,0,0.0,2.23,0.00,0.00
15min,AgWx,bigpiney,439,13JUL2021:04:45:00,50.2,12.47,52.2,51.6,50.1,51.6,48.3,62,66,60,0.796,37.7,38.7,37.2,5.283,5.3,240,7.3,6.8,0.00016,0.00023,55.7,54.1,48,1,0,0.0,2.23,0.00,0.00
15min,AgWx,bigpiney,439,13JUL2021:05:00:00,51.0,12.47,49.9,50.6,52.6,53.4,50.6,60,67,58,0.842,39.3,40.1,38.7,3.771,4.9,212,19,7.3,0.00018,0.00025,55.7,54.1,48,4,0,0.0,2.23,0.00,0.00
15min,AgWx,bigpiney,439,13JUL2021:05:15:00,51.9,12.44,65.1,62.0,53.4,62.0,49.6,61,72,43,0.806,39.8,40.8,37.7,9.86,6.5,218,59,23.5,0.00053,0.00095,55.6,54.1,48,5,0,0.0,2.23,0.00,0.00
15min,AgWx,bigpiney,439,13JUL2021:05:30:00,53.5,12.46,62.2,63.6,63.2,64.3,62.2,45,47,42,0.910,41.3,42.3,39.0,3.902,6.5,47,36,14.8,0.00097,0.00168,55.5,54.1,48,7,1,0.0,2.23,0.00,0.00
15min,AgWx,bigpiney,439,13JUL2021:05:45:00,55.1,12.47,56.2,56.7,59.6,63.5,56.7,55,61,45,0.950,43.3,44.1,41.7,7.629,5.9,107,28,8.8,0.00071,0.00121,55.4,54.0,48,8,0,0.0,2.23,0.00,0.00
15min,AgWx,bigpiney,439,13JUL2021:06:00:00,55.9,12.48,53.6,53.5,54.6,56.7,53.3,63,66,58,0.896,42.2,43.2,41.6,5.152,6.3,142,18,10.5,0.00060,0.00101,55.4,54.0,48,13,0,0.0,2.23,0.00,0.00
15min,AgWx,bigpiney,439,13JUL2021:06:15:00,55.8,12.51,55.0,54.2,52.7,54.2,51.4,68,72,64,0.915,42.3,42.9,41.7,4.56,5.5,225,49,8.0,0.00057,0.00088,55.3,54.0,48,33,0,0.0,2.23,0.00,0.00
15min,AgWx,bigpiney,439,13JUL2021:06:30:00,55.7,12.69,58.4,57.7,56.7,58.0,54.2,58,64,55,0.996,42.3,44.7,41.0,0,1.8,212,47,4.5,0.00067,0.00085,55.2,53.9,48,135,0,0.0,2.23,0.00,0.00
15min,AgWx,bigpiney,439,13JUL2021:06:45:00,56.8,12.84,60.3,60.0,58.9,60.0,57.9,59,64,52,0.952,44.3,46.4,42.4,2.302,3.9,31,18,8.0,0.00119,0.00155,55.2,53.9,48,217,0,0.0,2.23,0.00,0.00
15min,AgWx,bigpiney,439,13JUL2021:07:00:00,58.6,13,60.7,60.7,60.4,60.8,60.0,56,60,52,0.968,44.4,46.7,42.4,3.42,2.4,67,33,5.2,0.00141,0.00170,55.1,53.9,48,266,0,0.0,2.23,0.00,0.00
15min,AgWx,bigpiney,439,13JUL2021:07:15:00,60.4,13.2,60.9,60.8,60.4,60.9,60.1,59,64,52,1.171,46.0,48.8,43.1,1.841,3.0,131,21,6.5,0.00154,0.00187,55.1,53.9,48,262,0,0.0,2.23,0.00,0.00
15min,AgWx,bigpiney,439,13JUL2021:07:30:00,62.2,13.35,62.9,62.7,61.9,62.7,60.8,60,64,57,1.104,47.9,48.8,46.9,2.543,3.6,133,16,6.0,0.00212,0.00252,55.0,53.8,48,368,0,0.0,2.23,0.00,0.00
15min,AgWx,bigpiney,439,13JUL2021:07:45:00,63.8,13.36,64.5,64.6,63.7,64.6,62.5,56,62,47,1.014,47.4,49.7,43.8,1.622,2.4,144,17,3.9,0.00222,0.00257,54.9,53.8,48,367,0,0.0,2.23,0.00,0.00
15min,AgWx,bigpiney,439,13JUL2021:08:00:00,65.4,13.51,64.1,64.9,64.9,65.3,64.3,52,61,47,1.267,46.9,51.2,44.4,3.003,1.5,118,31,3.4,0.00236,0.00266,54.9,53.8,48,389,0,0.0,2.23,0.00,0.00
15min,AgWx,bigpiney,439,13JUL2021:08:15:00,66.7,13.47,64.5,64.3,64.4,64.9,63.9,58,66,48,0.982,49.2,53.2,44.1,0,2.0,99,26,4.4,0.00221,0.00253,54.8,53.7,48,343,0,0.0,2.23,0.00,0.00
15min,AgWx,bigpiney,439,13JUL2021:08:30:00,67.6,13.38,64.6,64.6,64.4,64.6,64.1,55,59,48,1.123,47.8,49.7,44.5,0,0.4,67,20,2.1,0.00183,0.00199,54.8,53.7,48,281,0,0.0,2.23,0.00,0.00
15min,AgWx,bigpiney,439,13JUL2021:08:45:00,68.4,14.17,66.1,66.1,65.4,66.1,64.5,53,61,45,1.050,48.0,51.5,43.5,2.894,1.9,103,14,3.9,0.00321,0.00359,54.7,53.7,48,513,0,0.0,2.23,0.00,0.00